Showing default

YAOGAN-35 03C, 53320

Orbit data source: Space-Track

YAOGAN-35 03C, 53320 is a payload satellite owned by PLA GAD (CN) in LEO that was launched on Fri, 29 Jul 2022 UTC via a CHANG ZHENG 2D launch vehicle from the Xichang Space Center, China (XSC). Payload-class satellites include a variety of spacecraft equipped with specific instruments for various scientific and technological missions. These include communications satellites like Starlink; space stations such as the ISS; scientific satellites like the Hubble; Earth observation satellites from companies like Planet Labs, Umbra, and HawkEye 360; GPS; miniature CubeSats for education and research; and military/defense satellites.

Loading next visibility...
Identifier
53320, 2022-088E
Orbit
LEO
Country
Flag of CNCN / PRC
Related business
Manufacturer
SAST
Mission
Operational Defense Sigint
Bus & Motor
Unknown
Mass
~300 kg wet, ~300 kg dry
Launch date (UTC)
2022-07-29 (4 years ago)
Launch vehicle
CHANG ZHENG 2D
Launch site
Xichang Space Center, China (XSC)
Object type
Payload
Rocket body
Debris
Shape & HBR
Box + 2 Pan, 2.5 m
Radar Cross Section
11.063 m², Large (>1 m²)

Expand to show TLE details & history
Last TLE update: 1 day ago

TLE from 1 day ago
0 YAOGAN-35 03C
1 53320U 22088E   26172.31033704  .00032894  00000-0  66289-3 0  9992
2 53320  34.9951 125.1857 0002832 271.6742  88.3656 15.45548095217573
Epoch: 2026-06-21T07:26Z
TLE epoch observation values (Epoch: 2026-06-21T07:26:53.120Z)
Latitude
0.00004°
Longitude
103.95198°
Altitude
428.609 km
Speed
7.657 km/s
True Right ascension
08h 20m 44s
True Declination
0° 00' 00"
Sunlit
Object was in daylight at epoch
Visualization orbit readout
Latitude
Unknown
Longitude
Unknown
Altitude
Unknown
Speed
Unknown
Apparent Right ascension
Unknown
Apparent Declination
Unknown
Sunlit
N/A
Visualization observer readout
Local Sidereal Time
21:25:47
Azimuth
Unknown
Elevation
Unknown
Doppler factor
Unknown
Orbital elements
Apogee altitude
434.98 km
Perigee altitude
431.122 km
Semi-major axis
6,811.188 km
Eccentricity
0.00028
Inclination
34.9951°
RAAN
125.1857°
Arg. of periapsis
271.6742°
True anomaly
88.39804°
Mean anomaly
88.3656°
Eccentric anomaly
88.38182°
Mean motion
3.86108 °/min
Orbital period
93.24 mins
BSTAR
0.00066289
Loading maneuver chart data...
Computing Atmospheric mass density...
Loading historical data...
Loading historical data...
Loading historical data...
Loading historical data...
Loading historical data...
Loading historical data...
Loading historical data...
Other satellites on launch #88 in the year 2022 (2022-07-29 UTC)

Documentation

Showing up to 5 results
|